EHI
9 12 15 17 18 18 18 18 16 12 12 12 9 4 1 0 0 0 0 0 0 0 0 0 0 0 0 0 0 0 0 0 0 0 0 0 0 0 0 0 0 0 0
8 10 11 13 15 15 14 14 12 9 9 10 7 4 2 1 0 0 0 0 0 0 0 0 0 0 0 0 0 0 0 0 0 0 0 0 0 0 0 0 0 0 0
6 6 8 9 11 11 10 9 8 7 7 7 4 3 3 2 0 0 0 1 0 0 0 0 0 0 0 0 0 0 0 0 0 0 0 0 0 0 0 0 0 0 0
4 4 5 6 8 8 8 7 7 7 6 5 3 1 2 1 0 0 0 0 0 0 0 0 0 0 0 0 0 0 0 0 0 0 0 0 0 0 0 0 0 0 0
2 2 2 3 5 6 6 6 6 6 5 3 1 0 0 0 0 0 0 0 0 0 0 0 0 0 0 0 0 0 0 0 0 0 0 0 0 0 0 0 0 0 0
1 1 1 1 3 4 4 4 5 5 2 1 0 0 0 0 0 0 0 0 0 0 0 0 0 0 0 0 0 0 0 0 0 0 0 0 0 0 0 0 0 0 0
0 0 0 0 1 3 3 3 4 3 1 0 0 0 0 0 0 0 0 0 0 0 0 0 0 0 0 0 0 0 0 0 0 0 0 0 0 0 0 0 0 0 0
0 0 0 0 1 2 3 3 3 2 1 0 0 0 0 0 0 0 0 0 0 0 0 0 0 0 0 0 0 0 0 0 0 0 0 0 0 0 0 0 0 0 0
0 0 0 0 0 1 2 2 1 1 0 0 0 0 0 0 0 0 0 0 0 0 0 0 0 0 0 0 0 0 0 0 0 0 0 0 0 0 0 0 0 0 0
0 0 0 0 0 0 1 1 0 0 0 0 0 0 0 0 0 0 0 0 0 0 0 0 0 0 0 0 0 0 0 0 0 0 0 0 0 0 0 0 0 0 0
0 0 0 0 0 0 0 0 0 0 0 0 0 0 0 0 0 0 0 0 0 0 0 0 0 0 0 0 0 0 0 0 0 0 0 0 0 0 0 0 0 0 0
0 0 0 0 0 0 0 0 0 0 0 0 0 0 0 0 0 0 0 0 0 0 0 0 0 0 0 0 0 0 0 0 0 0 0 0 0 0 0 0 0 0 0
0 0 0 0 0 0 0 0 0 0 0 0 0 0 0 0 0 0 0 0 0 0 0 0 0 0 0 0 0 0 0 0 0 0 0 0 0 0 0 0 0 0 0
0 0 0 0 0 0 0 0 0 0 0 0 0 0 0 0 0 0 0 0 0 0 0 0 0 0 0 0 0 0 0 0 0 0 0 0 0 0 0 0 0 0 0
0 0 0 0 0 0 0 0 0 0 0 0 0 0 0 0 0 0 0 0 0 0 0 0 0 0 0 0 0 0 0 0 0 0 0 0 0 0 0 0 0 0 0
0 0 0 0 0 0 0 0 0 0 0 0 0 0 0 0 0 0 0 0 0 0 0 0 0 0 0 0 0 0 0 0 0 0 0 0 0 0 0 0 0 0 0
0 0 0 0 0 0 0 0 0 0 0 0 0 0 0 0 0 0 0 0 0 0 0 0 0 0 0 0 0 0 0 0 0 0 0 0 0 0 0 0 0 0 0
0 0 0 0 0 0 0 0 0 0 0 0 0 0 0 0 0 0 0 0 0 0 0 0 0 0 0 0 0 0 0 0 0 0 0 0 0 0 0 0 0 0 0
0 0 0 0 0 0 0 0 0 0 0 0 0 0 0 0 0 0 0 0 0 0 0 0 0 0 0 0 0 0 0 0 0 0 0 0 0 0 0 0 0 0 0
0 0 0 0 0 0 0 0 0 0 0 0 0 0 0 0 0 0 0 0 0 0 0 0 0 0 0 0 0 0 0 0 0 0 0 0 0 0 0 0 0 0 0
0 0 0 0 0 0 0 0 0 0 0 0 0 0 0 0 0 0 0 0 0 0 0 0 0 0 0 0 0 0 0 0 0 0 0 0 0 0 0 0 0 0 0
0 0 0 0 0 0 0 0 0 0 0 0 0 0 0 0 0 0 0 0 0 0 0 0 0 0 0 0 0 0 0 0 0 0 0 0 0 0 0 0 0 0 0
0 0 0 0 0 0 0 0 0 0 0 0 0 0 0 0 0 0 0 0 0 0 0 0 0 0 0 0 0 0 0 0 0 0 0 0 0 0 0 0 0 0 0
0 0 0 0 0 0 0 0 0 0 0 0 0 0 0 0 0 0 0 0 0 0 0 0 0 0 0 0 0 0 0 0 0 0 0 0 0 0 0 0 0 0 0
0 0 0 0 0 0 0 0 0 0 0 0 0 0 0 0 0 0 0 0 0 0 0 0 0 0 0 0 0 0 0 0 0 0 0 0 0 0 0 0 0 0 0
0 0 0 0 0 0 0 0 0 0 0 0 0 0 0 0 0 0 0 0 0 0 0 0 0 0 0 0 0 0 0 0 0 0 0 0 0 0 0 0 0 0 0
Wind_Speed
7 8 8 7 8 7 6 4 4 3 3 3 3 3 4 4 5 6 7 7 7 7 6 5 5 4 4 3 2 2 3 2 1 1 1 2 3 3 3 3 4 5 5
8 9 9 9 8 8 7 6 5 4 3 3 3 4 5 5 6 6 8 9 9 8 6 7 5 5 5 5 4 2 2 2 3 1 1 1 2 3 4 4 4 5 5
8 9 9 10 9 9 8 7 6 5 4 5 6 7 5 4 4 6 6 9 9 9 8 8 6 6 5 5 5 4 2 2 3 3 1 1 1 1 2 4 5 6 6
9 9 9 9 9 9 8 8 8 7 6 5 7 8 6 6 6 6 6 9 10 9 8 9 8 8 7 7 6 6 4 3 3 3 4 3 2 0 0 2 4 6 7
9 9 9 9 9 9 9 8 9 10 9 8 8 10 9 8 8 8 10 9 9 9 9 9 9 9 8 8 9 8 8 6 5 4 3 4 4 4 1 1 3 3 5
9 9 9 9 10 10 9 9 11 11 10 11 11 11 12 11 11 10 9 8 7 7 10 10 9 9 8 9 8 8 10 8 8 7 6 4 4 3 3 2 2 3 3
8 8 9 9 10 10 10 10 12 12 11 12 13 12 12 12 12 10 9 9 7 7 8 9 9 8 8 8 8 9 9 9 9 8 6 5 5 3 2 2 1 2 2
8 9 9 9 9 11 10 11 12 12 12 12 13 13 12 10 9 10 9 8 7 6 7 9 9 9 9 9 8 8 8 8 8 8 6 5 5 4 3 2 1 1 2
9 9 9 9 10 11 10 10 12 12 12 12 13 13 12 11 11 10 9 8 6 7 9 9 9 8 8 8 8 7 7 7 6 6 6 5 4 4 4 3 2 1 2
9 9 8 9 9 10 10 11 11 12 11 11 11 11 11 11 10 10 10 9 8 8 8 9 9 8 8 8 7 6 6 7 6 4 6 5 3 4 4 3 3 2 1
9 9 8 8 8 9 10 10 11 11 11 11 11 11 10 10 10 10 9 8 7 7 8 8 8 8 8 7 7 6 6 7 6 5 5 5 4 4 3 3 3 3 2
10 9 9 8 8 9 9 10 10 10 10 10 10 10 9 9 9 8 7 7 7 7 7 7 7 8 7 6 6 6 6 6 5 5 5 4 3 4 3 2 3 2 1
10 9 9 8 8 8 8 9 9 9 8 9 9 9 8 8 8 7 6 6 6 6 6 7 7 7 6 6 5 5 5 4 4 4 4 3 3 3 2 2 2 2 2
10 10 9 8 8 8 8 8 8 7 8 8 8 8 7 6 6 6 6 6 6 6 6 6 6 5 5 5 5 5 5 4 4 4 3 3 2 2 2 2 2 2 2
11 10 9 8 7 8 7 7 7 6 6 7 7 6 5 5 5 5 5 5 5 5 5 5 5 5 4 5 4 4 4 4 4 4 4 3 4 4 3 3 3 3 2
11 10 10 9 8 7 7 7 6 5 6 6 5 4 4 5 5 4 4 5 5 5 5 5 5 5 4 6 7 5 4 4 4 4 4 4 4 6 8 8 7 5 3
12 11 9 8 7 6 6 6 5 5 5 5 4 4 4 4 4 4 5 4 4 4 4 4 4 4 5 7 7 6 3 3 3 3 4 4 5 7 6 8 9 8 7
11 10 8 7 5 5 5 5 5 5 4 4 3 3 3 3 4 4 4 3 2 3 3 3 3 3 5 8 7 6 4 3 4 4 4 4 6 6 7 7 7 7 6
9 8 7 7 6 5 5 6 5 4 4 3 2 2 3 3 3 3 3 2 2 2 2 2 2 3 4 7 8 6 4 4 5 5 5 5 6 8 8 5 7 8 6
9 8 7 7 6 5 6 6 5 4 3 2 2 2 3 3 3 2 2 1 2 2 2 2 2 3 3 6 8 7 3 4 5 6 5 6 7 10 8 4 4 6 7
10 9 8 6 5 5 6 6 5 4 2 3 3 3 3 3 3 2 2 2 2 3 3 3 3 3 3 5 7 7 3 3 5 5 5 6 11 11 8 4 2 5 7
10 9 8 6 4 5 6 6 4 2 3 3 3 3 3 2 3 3 3 3 3 3 3 2 3 2 3 4 6 8 6 4 3 4 5 6 11 9 8 5 6 6 4
9 7 8 7 5 4 6 6 3 3 4 4 3 3 3 3 3 3 3 3 2 2 2 1 2 3 3 4 6 7 8 7 3 4 7 8 8 7 6 8 9 6 4
9 7 8 7 5 4 4 4 4 4 5 4 3 2 3 2 3 2 2 2 1 1 1 1 1 2 3 4 5 6 5 6 4 4 6 6 7 7 6 6 6 5 4
7 7 7 6 5 4 4 3 4 4 4 3 2 2 2 2 2 2 1 1 1 2 1 1 1 1 3 4 7 6 5 4 4 3 3 5 5 7 6 6 6 6 6
7 7 6 6 4 4 3 2 3 4 4 3 2 1 1 1 1 1 1 1 0 1 2 3 3 3 5 8 8 6 6 6 4 4 4 4 4 5 5 6 6 6 6
Wind_Direction
50 49 50 52 53 50 53 70 81 79 101 112 115 109 96 89 77 69 67 67 68 67 71 78 71 67 72 64 61 86 79 52 27 86 60 38 39 35 22 18 22 23 20
50 47 46 46 48 46 41 47 56 61 80 101 99 90 89 83 77 67 60 57 62 62 70 72 70 65 72 59 43 54 93 56 24 61 121 22 10 31 31 28 32 26 23
52 44 43 42 42 41 38 43 48 53 61 93 106 103 98 92 78 67 61 53 60 63 69 76 75 69 73 70 51 41 72 101 53 37 63 150 213 359 18 33 33 30 28
56 51 46 44 42 38 38 44 49 53 60 83 114 116 116 107 86 81 75 64 60 63 63 69 70 69 67 65 56 51 48 66 62 41 34 44 48 91 339 21 28 33 32
62 58 53 50 47 43 43 45 52 54 58 73 96 106 104 101 99 90 82 71 61 58 61 65 68 68 66 67 63 59 60 60 61 51 34 37 36 33 54 18 3 18 26
63 58 56 55 52 49 48 49 58 57 58 68 79 93 103 103 99 92 88 79 68 61 60 66 68 66 66 65 65 64 64 66 66 61 53 50 45 28 38 40 358 356 359
72 61 57 56 54 54 52 56 62 62 61 69 73 80 88 91 91 90 84 81 74 66 59 64 66 66 64 65 66 66 63 62 65 63 60 57 51 34 33 52 15 8 350
79 69 60 59 58 58 56 60 65 66 66 71 75 76 79 82 83 82 84 81 78 73 70 69 67 65 65 67 67 67 64 63 65 64 61 59 47 42 42 40 30 27 8
83 74 66 62 61 61 58 62 69 70 69 73 76 76 77 80 83 83 81 79 77 77 70 68 66 63 62 63 66 67 64 64 62 61 60 57 44 42 42 43 42 57 23
93 82 72 67 67 68 68 66 70 74 72 73 77 80 77 79 82 82 79 78 73 72 72 69 65 62 59 60 64 64 61 65 56 57 59 53 40 39 38 38 39 46 76
108 99 88 77 76 74 73 73 72 75 75 75 77 79 78 77 78 78 77 77 75 72 72 71 68 63 57 54 61 60 60 63 55 49 55 50 42 41 33 34 37 36 36
115 109 101 91 83 79 78 77 77 77 76 78 80 79 78 77 77 77 75 77 76 72 73 72 69 65 58 52 56 58 55 57 52 43 48 42 44 43 32 31 29 21 15
120 114 106 98 94 90 87 84 81 81 81 82 82 79 76 75 75 76 75 75 75 71 67 68 67 62 56 52 50 56 54 51 44 36 39 30 37 29 17 11 6 351 353
125 119 113 107 104 99 94 93 88 87 89 86 84 80 76 77 78 75 73 73 75 74 69 68 68 63 56 50 47 48 45 37 30 26 26 23 23 8 353 348 338 330 335
130 125 122 118 112 105 99 95 92 89 89 88 83 81 80 78 76 73 71 71 69 72 72 74 65 54 51 42 49 46 44 33 25 21 16 7 13 10 352 339 324 321 317
135 131 128 125 122 119 114 107 100 96 95 92 89 85 81 76 71 69 70 70 65 63 66 67 63 52 40 37 48 52 40 29 24 9 355 347 360 354 350 345 339 323 297
139 138 136 133 132 129 124 121 117 109 100 95 89 84 83 77 67 72 72 71 68 69 70 65 62 51 30 35 37 40 41 23 6 351 344 343 344 349 340 337 336 330 314
140 138 136 130 124 119 118 116 113 108 102 95 88 88 89 81 74 73 73 70 71 75 73 65 57 47 27 28 28 25 27 14 358 348 338 329 328 335 337 331 330 327 319
135 133 132 127 123 123 122 115 113 108 103 103 102 99 100 95 85 79 73 65 73 70 66 63 55 43 13 14 19 22 10 2 352 344 340 332 327 326 334 332 330 330 328
125 124 121 117 121 127 125 119 122 120 121 124 114 101 104 108 99 89 73 59 80 78 72 59 42 33 8 4 15 19 9 358 346 338 338 341 338 332 335 327 322 324 322
128 127 124 123 130 131 123 120 124 138 152 130 111 96 95 104 106 91 72 74 79 72 60 51 29 19 6 1 8 12 9 347 334 335 335 334 336 338 340 336 297 287 297
130 129 124 120 121 128 125 124 133 147 126 112 101 90 78 79 96 92 72 64 78 77 57 41 18 2 355 356 353 356 355 344 325 322 323 323 333 347 1 5 352 337 330
128 124 125 119 115 125 130 130 140 126 112 101 91 84 80 74 81 93 86 67 65 73 56 41 8 340 338 339 347 349 347 347 337 312 319 334 353 10 17 13 12 13 11
125 126 124 122 121 121 122 133 138 125 115 110 101 97 93 76 64 70 86 93 92 89 74 39 356 334 330 340 347 343 340 345 353 347 343 358 19 29 19 9 11 13 6
122 127 129 128 131 126 120 127 125 117 111 110 105 101 94 91 77 64 70 124 194 196 185 212 241 312 325 318 325 328 330 332 334 345 11 22 16 14 8 2 1 3 6
123 124 125 128 133 130 126 125 129 127 125 120 120 126 126 107 111 100 38 14 236 246 220 217 220 255 266 296 319 343 7 16 33 56 39 23 15 10 2 355 352 355 359